EW5648 Weather Reports


time (UTC)temp
F
wind
direction
speed
knots
gust
knots
rain 1hr
in
rain 24hr
in
rain mn
in
humidity
%
barometer
mb
20260504050021 63 34 2.6 4.3 0.00 0.02 0.00 64 1010.3
20260504045110 63 58 0.9 1.7 0.00 0.04 0.00 65 1010.3
20260504044021 64 0.0 0.0 0.00 0.04 0.00 65 1010.2
20260504043026 65 136 1.7 6.1 0.00 0.04 0.00 64 1010.1
20260504042034 65 100 1.7 4.3 0.00 0.04 0.00 64 1010.2
20260504041025 66 338 3.5 4.3 0.00 0.04 0.00 62 1010.1
20260504040018 66 4 4.3 10.4 0.00 0.04 0.00 60 1010.1
20260504035025 66 322 2.6 8.7 0.00 0.05 0.00 60 1010.1
20260504034027 65 318 0.9 4.3 0.00 0.06 0.00 62 1010.1
20260504033030 65 333 0.9 4.3 0.00 0.07 0.00 63 1010.1
20260504032020 66 52 7.8 13.0 0.00 0.11 0.00 63 1010.1
20260504031027 66 333 2.6 4.3 0.00 0.13 0.00 64 1010.2
20260504030030 65 337 1.7 6.1 0.00 0.17 0.00 63 1010.3
20260504025023 65 345 2.6 6.1 0.00 0.18 0.00 64 1010.4
20260504024029 65 347 2.6 6.1 0.00 0.18 0.00 63 1010.4
20260504023030 65 2 3.5 8.7 0.00 0.18 0.00 63 1010.5
20260504022054 65 36 3.5 8.7 0.00 0.18 0.00 64 1010.5
20260504021026 65 3 2.6 8.7 0.00 0.18 0.00 64 1010.7
20260504020114 65 24 1.7 6.1 0.00 0.22 0.00 64 1010.8
20260504015025 65 47 3.5 8.7 0.00 0.25 0.00 66 1010.9
20260504014030 64 311 0.9 1.7 0.00 0.26 0.00 67 1011.0
20260504013030 64 98 4.3 8.7 0.00 0.30 0.00 68 1011.0
20260504012018 64 75 2.6 14.8 0.00 0.34 0.00 68 1011.0
20260504011025 64 207 2.6 4.3 0.00 0.39 0.00 68 1011.2
20260504010030 64 53 5.2 8.7 0.00 0.41 0.00 67 1011.1
20260504005031 65 133 9.6 10.4 0.00 0.43 0.00 68 1011.1
20260504004121 65 98 1.7 4.3 0.00 0.45 0.00 68 1011.4
20260504003020 65 50 1.7 8.7 0.00 0.47 0.00 66 1011.2
20260504002026 65 33 0.0 1.7 0.00 0.47 0.00 64 1011.4
20260504001029 65 44 4.3 6.1 0.00 0.47 0.00 65 1011.3
20260504000030 64 313 0.9 1.7 0.00 0.47 0.00 64 1011.2
20260503235041 64 313 0.9 1.7 0.00 0.47 0.00 64 1011.0
20260503234018 63 209 5.2 8.7 0.00 0.47 0.00 64 1011.4
20260503233046 62 30 1.7 1.7 0.00 0.47 0.00 67 1011.5
20260503232023 61 84 4.3 8.7 0.00 0.47 0.00 67 1011.3
20260503231024 61 92 7.0 8.7 0.00 0.47 0.00 68 1011.0
20260503230025 61 161 0.0 1.7 0.00 0.47 0.00 71 1010.8
20260503225030 60 70 3.5 4.3 0.00 0.47 0.00 69 1010.9
20260503224019 59 115 6.1 8.7 0.00 0.47 0.00 69 1011.0
20260503223025 58 0.0 0.0 0.00 0.47 0.00 78 1011.2
20260503222031 56 106 0.0 1.7 0.00 0.47 0.00 85 1011.3
20260503221031 56 355 0.0 1.7 0.00 0.47 0.00 86 1011.3
20260503220029 56 87 0.0 1.7 0.00 0.47 0.00 88 1011.4
20260503215029 56 345 0.0 1.7 0.00 0.47 0.00 88 1011.6
20260503214032 56 113 0.9 6.1 0.00 0.47 0.00 88 1011.5
20260503213125 56 114 0.9 6.1 0.00 0.47 0.00 87 1011.6
20260503212020 56 133 1.7 6.1 0.00 0.48 0.00 86 1011.6
20260503211025 55 124 1.7 8.7 0.00 0.48 0.00 86 1011.5
20260503210051 55 124 1.7 6.1 0.00 0.48 0.00 86 1011.5
20260503205104 55 77 0.9 4.3 0.00 0.48 0.00 85 1011.4
20260503204031 54 123 0.0 4.3 0.00 0.48 0.00 85 1011.4
20260503203026 54 121 0.9 4.3 0.00 0.50 0.00 88 1011.3
20260503202112 53 20 0.9 4.3 0.00 0.50 0.00 90 1011.2
20260503201022 53 70 0.9 4.3 0.00 0.50 0.00 90 1011.1
20260503200034 53 110 0.9 4.3 0.00 0.50 0.00 90 1011.1
20260503195027 54 43 0.0 6.1 0.00 0.50 0.00 89 1011.0
20260503194033 54 36 0.0 1.7 0.00 0.50 0.00 88 1011.1
20260503193023 54 95 0.0 4.3 0.00 0.50 0.00 88 1011.1
20260503192031 54 110 0.0 1.7 0.00 0.50 0.00 88 1011.1
20260503191042 54 117 0.0 1.7 0.00 0.50 0.00 86 1011.3
20260503190032 54 32 0.0 1.7 0.00 0.50 0.00 87 1011.5
20260503185024 54 121 0.0 1.7 0.00 0.51 0.00 88 1011.4
20260503184039 53 109 0.0 1.7 0.00 0.52 0.00 88 1011.6
20260503183023 53 103 0.9 4.3 0.00 0.52 0.00 91 1011.6
20260503182032 53 74 0.0 1.7 0.00 0.52 0.00 91 1011.7
20260503181101 54 128 0.0 4.3 0.00 0.52 0.00 91 1011.8
20260503180024 54 86 0.0 1.7 0.00 0.52 0.00 91 1012.0
20260503175029 54 45 0.0 1.7 0.00 0.52 0.00 91 1012.1
20260503174147 54 56 0.0 1.7 0.00 0.52 0.00 90 1012.1
20260503173037 54 0.0 0.0 0.00 0.52 0.00 90 1011.9
20260503172131 55 0.0 0.0 0.00 0.52 0.00 89 1011.9
20260503171025 55 0.0 0.0 0.00 0.52 0.00 88 1011.8
20260503131025 58 73 1.7 4.3 0.00 0.52 0.52 84 1012.4
20260503081021 59 15 0.9 1.7 0.00 0.52 0.52 90 1011.4
20260503072023 60 99 0.0 1.7 0.02 0.52 0.52 97 1011.2
20260503071023 61 32 0.9 1.7 0.02 0.52 0.52 98 1011.1